Flag for U.S.A. Weather past 2 weeks in Tacoma, Washington, U.S.A.

Now
54 °F

Clear.


Feels Like: 54 °F
Forecast: 53 / 62 °F
Wind: No wind

Location: Tacoma Narrows Airport

Current Time: Sep 30, 2014 at 2:48:28 AM

Latest Report: Sep 30, 2014 at 1:53 AM


Visibility: 10 mi

Pressure: 30.00 "Hg

Humidity: 86%

Dew point: 50 °F

Location of TacomaLocation

Historic Weather in Tacoma — Graph

°F

Tacoma temperature yesterday

Maximum temperature yesterday: 60 °F (at 4:53 PM)
Minimum temperature yesterday: 52 °F (at 12:53 AM)
Average temperature yesterday: 56 °F

Past Weeks' High & Low Weather Summary

 TemperatureHumidityPressure
High84 °F (Sep 15, 3:53 PM)100% (Sep 29, 3:53 AM)30.14 "Hg (Sep 29, 3:53 AM)
Low51 °F (Sep 28, 6:53 AM)26% (Sep 15, 1:53 PM)29.69 "Hg (Sep 23, 10:53 PM)
Average62 °F78%29.91 "Hg
* Reported Sep 15 12:53 AM — Sep 30 12:53 AM, Tacoma, Weather by CustomWeather, © 2014

Note: Actual official high and low records may vary slightly from our data, if they occured in-between our weather recording intervals... More about our weather records

Advertising

Tacoma weather history for previous 24 hours

 ConditionsComfort  
Time TempWeatherWind HumidityBarometerVisibility
12:53 AM
Sep 30
55 °FMostly cloudy.10 mph83%29.98 "Hg10 mi
11:53 PM
Sep 29
56 °FOvercast.6 mph84%29.98 "Hg10 mi
10:53 PM56 °FOvercast.8 mph84%29.96 "Hg10 mi
9:53 PM56 °FMostly cloudy.7 mph84%29.95 "Hg10 mi
8:53 PM57 °FPassing clouds.7 mph81%29.93 "Hg10 mi
7:53 PM58 °FScattered clouds.8 mph81%29.91 "Hg10 mi
6:53 PM60 °FBroken clouds.9 mph86%29.90 "Hg7 mi
5:53 PM60 °FFog.13 mph90%29.88 "Hg3 mi
4:53 PM60 °FFog.10 mph90%29.88 "Hg3 mi
3:53 PM59 °FLight rain. Fog.7 mph96%29.89 "Hg1 mi
2:53 PM59 °FLight rain. Fog.7 mph93%29.90 "Hg1 mi
1:53 PM59 °FLight rain. Fog.10 mph87%29.91 "Hg6 mi
12:59 PM59 °FPartly sunny.13 mph87%29.92 "Hg10 mi
11:53 AM57 °FCloudy.9 mph90%29.93 "Hg10 mi
10:53 AM57 °FMore clouds than sun.12 mph87%29.93 "Hg7 mi
9:53 AM56 °FBroken clouds.14 mph87%29.93 "Hg10 mi
8:53 AM55 °FPartly sunny.10 mph90%29.91 "Hg10 mi
7:53 AM53 °FPassing clouds.12 mph96%29.93 "Hg10 mi
6:53 AM53 °FLow clouds.9 mph96%29.91 "Hg10 mi
6:02 AM53 °FFog.8 mph96%29.92 "Hg2 mi
5:53 AM53 °FFog.7 mph96%29.92 "Hg6 mi
4:53 AM53 °FFog.5 mph96%29.90 "Hg0 mi
3:53 AM53 °FFog.No wind100%29.90 "Hg0 mi
2:53 AM52 °FFog.3 mph97%29.90 "Hg0 mi
Weather by CustomWeather, © 2014

See weather overviewHow to use our weather pages